This is the latest recevied weather packets stored in our database for station/object JF7BTK-10. If no packets are shown the sender has not sent any weather packets the latest 10 day(s).
| Time | Temp. | Humidity | Pressure | Rain* | Wind** | Luminosity | Snow |
|---|---|---|---|---|---|---|---|
| 1777868937 | 16.11° C | 81% | 988.2 hPa | 0.25 mm | - | - | - |
| 1777868036 | 15.56° C | 81% | 988.2 hPa | 0 mm | - | - | - |
| 1777867135 | 16.11° C | 83% | 988.1 hPa | 0 mm | - | - | - |
| 1777866235 | 15° C | 83% | 988.3 hPa | 0 mm | - | - | - |
| 1777865336 | 14.44° C | 84% | 988.2 hPa | 0 mm | - | - | - |
| 1777864435 | 15° C | 85% | 988.1 hPa | 0 mm | - | - | - |
| 1777863535 | 14.44° C | 85% | 987.9 hPa | 0 mm | - | - | - |
| 1777862636 | 14.44° C | 84% | 988.1 hPa | 0 mm | - | - | - |
| 1777861735 | 14.44° C | 83% | 988.3 hPa | 0 mm | - | - | - |
| 1777860836 | 15° C | 83% | 988.3 hPa | 0 mm | - | - | - |
| 1777859936 | 15° C | 85% | 988.3 hPa | 0 mm | - | - | - |
| 1777859036 | 15.56° C | 86% | 988.1 hPa | 0 mm | - | - | - |
| 1777858136 | 15.56° C | 84% | 987.8 hPa | 0 mm | - | - | - |
| 1777857235 | 16.11° C | 85% | 987.7 hPa | 0 mm | - | - | - |
| 1777856337 | 15.56° C | 86% | 987.2 hPa | 0 mm | - | - | - |
| 1777855435 | 16.11° C | 83% | 987.1 hPa | 0 mm | - | - | - |
| 1777854537 | 16.67° C | 83% | 986.9 hPa | 0 mm | - | - | - |
| 1777853637 | 16.67° C | 91% | 986.9 hPa | 0 mm | - | - | - |
| 1777852736 | 15.56° C | 94% | 986.6 hPa | 0 mm | - | - | - |
| 1777851836 | 14.44° C | 94% | 986.5 hPa | 0 mm | - | - | - |
| 1777850936 | 13.33° C | 91% | 986.8 hPa | 0 mm | - | - | - |
| 1777850036 | 13.89° C | 90% | 986.9 hPa | 0 mm | - | - | - |
| 1777849352 | 15° C | 92% | 987.2 hPa | 0 mm | - | - | - |
| 1777849136 | 15.56° C | 93% | 987.1 hPa | 0 mm | - | - | - |
| 1777848235 | 15.56° C | 93% | 986.7 hPa | 0 mm | - | - | - |
* Rain latest hour (hover to see other rain measurements)
** Current wind speed in m/s (hover to see current wind gust speed)